FW0183 Weather Reports


Display with metric or nautical units.
time (UTC)temp
F
wind
direction
speed
MPH
gust
MPH
rain 1hr
in
rain 24hr
in
rain mn
in
humidity
%
barometer
mb
20260504081530 42 360 3.0 9.0 0.00 0.00 0.00 65 1018.6
20260504044525 41 360 6.0 11.0 0.00 0.00 0.00 61 1019.8
20260504043024 41 360 1.0 5.0 0.00 0.00 0.00 60 1019.8
20260504041524 40 360 4.0 10.0 0.00 0.00 0.00 61 1019.7
20260504040142 41 360 1.0 5.0 0.00 0.00 0.00 59 1019.7
20260504034502 40 360 2.0 8.0 0.00 0.00 0.00 60 1019.9
20260504033056 39 360 4.0 10.0 0.00 0.00 0.00 63 1019.6
20260504031556 39 360 3.0 5.0 0.00 0.00 0.00 61 1019.7
20260504030044 39 360 0.0 2.0 0.00 0.00 0.00 61 1019.8
20260504024526 40 360 0.0 3.0 0.00 0.00 0.00 59 1019.9
20260504023022 40 360 3.0 5.0 0.00 0.00 0.00 58 1019.8
20260504021515 39 360 2.0 4.0 0.00 0.00 0.00 59 1019.6
20260504020015 40 183 3.0 6.0 0.00 0.00 0.00 58 1019.7
20260504014504 40 165 3.0 6.0 0.00 0.00 0.00 57 1019.5
20260504013158 42 184 2.0 4.0 0.00 0.00 0.00 56 1019.5
20260504011552 39 184 6.0 10.0 0.00 0.00 0.00 60 1019.2
20260504010049 42 360 7.0 10.0 0.00 0.00 0.00 56 1019.3
20260504004525 42 360 7.0 10.0 0.00 0.00 0.00 56 1019.0
20260504003020 42 191 8.0 10.0 0.00 0.00 0.00 57 1018.8
20260504001514 44 360 9.0 11.0 0.00 0.00 0.00 54 1018.7
20260504000007 47 360 9.0 14.0 0.00 0.00 0.00 48 1018.7
20260503234628 49 202 5.0 8.0 0.00 0.00 0.00 45 1018.6
20260503233053 50 360 7.0 14.0 0.00 0.00 0.00 41 1018.8
20260503231550 51 360 8.0 13.0 0.00 0.00 0.00 39 1018.9
20260503230044 52 199 5.0 12.0 0.00 0.00 0.00 38 1018.9
20260503224538 52 213 8.0 12.0 0.00 0.00 0.00 37 1018.9
20260503223033 53 218 8.0 13.0 0.00 0.00 0.00 36 1018.9
20260503221534 53 232 8.0 16.0 0.00 0.00 0.00 34 1018.9
20260503220025 54 360 10.0 13.0 0.00 0.00 0.00 34 1019.0
20260503214523 54 211 9.0 15.0 0.00 0.00 0.00 33 1019.0
20260503213020 55 115 5.0 18.0 0.00 0.00 0.00 34 1019.3
20260503211552 54 360 13.0 19.0 0.00 0.00 0.00 34 1019.4
20260503210045 54 360 8.0 14.0 0.00 0.00 0.00 34 1019.4
20260503204527 53 243 9.0 16.0 0.00 0.00 0.00 34 1019.5
20260503203021 53 257 7.0 16.0 0.00 0.00 0.00 35 1019.7
20260503201515 53 360 10.0 16.0 0.00 0.00 0.00 35 1019.8
20260503200008 53 360 8.0 19.0 0.00 0.00 0.00 35 1020.2
20260503193154 52 49 6.0 16.0 0.00 0.00 0.00 39 1020.5
20260503191549 53 209 4.0 15.0 0.00 0.00 0.00 35 1020.7
20260503190039 52 360 8.0 13.0 0.00 0.00 0.00 37 1021.0
20260503184615 50 273 4.0 14.0 0.00 0.00 0.00 36 1021.2
20260503183013 52 314 3.0 9.0 0.00 0.00 0.00 36 1021.3
20260503181646 52 360 5.0 15.0 0.00 0.00 0.00 39 1021.2
20260503180035 51 317 4.0 11.0 0.00 0.00 0.00 38 1021.4
20260503174616 51 355 1.0 9.0 0.00 0.00 0.00 36 1021.8
20260503173112 50 5 4.0 11.0 0.00 0.00 0.00 37 1021.9
20260503171658 49 360 2.0 8.0 0.00 0.00 0.00 35 1021.9
20260503110107 30 12 1.0 6.0 0.00 0.00 0.00 71 1020.7